Time,TemperatureF,DewpointF,PressureIn,WindDirection,WindDirectionDegrees,WindSpeedMPH,WindSpeedGustMPH,Humidity,HourlyPrecipIn,Conditions,Clouds,dailyrainin,SoftwareType,DateUTC
2013-12-11 00:04:00,15.4,14.0,30.33,WNW,288,0.0,0.0,92,0.00,,,0.00,weatherlink.com 1.10,2013-12-11 06:04:00,
2013-12-11 00:19:00,15.5,14.0,30.33,WNW,302,1.0,3.0,92,0.00,,,0.00,weatherlink.com 1.10,2013-12-11 06:19:00,
2013-12-11 00:34:00,15.5,14.0,30.34,NW,304,0.0,4.0,92,0.00,,,0.00,weatherlink.com 1.10,2013-12-11 06:34:00,
2013-12-11 00:49:00,15.4,13.0,30.34,WNW,292,2.0,4.0,91,0.00,,,0.00,weatherlink.com 1.10,2013-12-11 06:49:00,
2013-12-11 01:04:00,15.2,13.0,30.35,NNW,340,3.0,5.0,90,0.00,,,0.00,weatherlink.com 1.10,2013-12-11 07:04:00,
2013-12-11 01:19:00,14.4,12.0,30.36,NW,317,4.0,6.0,88,0.00,,,0.00,weatherlink.com 1.10,2013-12-11 07:19:00,
2013-12-11 01:34:00,14.0,11.0,30.38,WNW,295,7.0,10.0,86,0.00,,,0.00,weatherlink.com 1.10,2013-12-11 07:34:00,
2013-12-11 01:49:00,11.2,7.0,30.39,WNW,300,10.0,15.0,84,0.00,,,0.00,weatherlink.com 1.10,2013-12-11 07:49:00,
2013-12-11 02:04:00,10.4,7.0,30.40,NNW,344,6.0,13.0,84,0.00,,,0.00,weatherlink.com 1.10,2013-12-11 08:04:00,
2013-12-11 02:19:00,9.2,5.0,30.41,NW,323,7.0,13.0,84,0.00,,,0.00,weatherlink.com 1.10,2013-12-11 08:19:00,
2013-12-11 02:34:00,7.0,3.0,30.43,NW,323,4.0,15.0,85,0.00,,,0.00,weatherlink.com 1.10,2013-12-11 08:34:00,
2013-12-11 02:49:00,5.6,2.0,30.44,NW,316,5.0,10.0,83,0.00,,,0.00,weatherlink.com 1.10,2013-12-11 08:49:00,
2013-12-11 03:04:00,4.3,0.0,30.45,NNW,347,5.0,12.0,82,0.00,,,0.00,weatherlink.com 1.10,2013-12-11 09:04:00,
2013-12-11 03:19:00,2.9,-2.0,30.45,ENE,75,4.0,9.0,80,0.00,,,0.00,weatherlink.com 1.10,2013-12-11 09:19:00,
2013-12-11 03:34:00,2.0,-4.0,30.46,NW,316,4.0,11.0,77,0.00,,,0.00,weatherlink.com 1.10,2013-12-11 09:34:00,
2013-12-11 03:50:00,1.0,-5.0,30.47,NNW,335,3.0,9.0,77,0.00,,,0.00,weatherlink.com 1.10,2013-12-11 09:50:00,
2013-12-11 04:05:00,0.4,-5.0,30.47,NW,312,4.0,8.0,78,0.00,,,0.00,weatherlink.com 1.10,2013-12-11 10:05:00,
2013-12-11 04:20:00,-0.4,-5.0,30.49,NNW,328,4.0,10.0,79,0.00,,,0.00,weatherlink.com 1.10,2013-12-11 10:20:00,
2013-12-11 04:35:00,-1.5,-6.0,30.50,NW,315,2.0,7.0,80,0.00,,,0.00,weatherlink.com 1.10,2013-12-11 10:35:00,
2013-12-11 04:50:00,-2.2,-7.0,30.50,NNW,344,7.0,7.0,81,0.00,,,0.00,weatherlink.com 1.10,2013-12-11 10:50:00,
2013-12-11 05:05:00,-2.6,-7.0,30.51,NW,308,5.0,8.0,82,0.00,,,0.00,weatherlink.com 1.10,2013-12-11 11:05:00,
2013-12-11 05:20:00,-2.9,-7.0,30.52,NW,324,4.0,7.0,82,0.00,,,0.00,weatherlink.com 1.10,2013-12-11 11:20:00,
2013-12-11 05:35:00,-3.6,-8.0,30.54,NNW,328,3.0,6.0,83,0.00,,,0.00,weatherlink.com 1.10,2013-12-11 11:35:00,
2013-12-11 05:50:00,-4.0,-8.0,30.55,NW,311,2.0,7.0,82,0.00,,,0.00,weatherlink.com 1.10,2013-12-11 11:50:00,
2013-12-11 06:05:00,-4.5,-9.0,30.56,NW,306,2.0,6.0,82,0.00,,,0.00,weatherlink.com 1.10,2013-12-11 12:05:00,
2013-12-11 06:20:00,-5.1,-9.0,30.57,NW,307,4.0,6.0,83,0.00,,,0.00,weatherlink.com 1.10,2013-12-11 12:20:00,
2013-12-11 06:35:00,-5.4,-9.0,30.58,NW,317,2.0,5.0,83,0.00,,,0.00,weatherlink.com 1.10,2013-12-11 12:35:00,
2013-12-11 06:50:00,-6.2,-10.0,30.59,NW,308,1.0,4.0,82,0.00,,,0.00,weatherlink.com 1.10,2013-12-11 12:50:00,
2013-12-11 07:06:00,-6.8,-11.0,30.59,NNW,330,1.0,5.0,83,0.00,,,0.00,weatherlink.com 1.10,2013-12-11 13:06:00,
2013-12-11 07:21:00,-7.3,-11.0,30.60,NNW,340,1.0,3.0,82,0.00,,,0.00,weatherlink.com 1.10,2013-12-11 13:21:00,
2013-12-11 07:36:00,-7.9,-12.0,30.61,NNW,336,0.0,4.0,83,0.00,,,0.00,weatherlink.com 1.10,2013-12-11 13:36:00,
2013-12-11 07:51:00,-8.0,-12.0,30.62,NW,326,1.0,5.0,83,0.00,,,0.00,weatherlink.com 1.10,2013-12-11 13:51:00,
2013-12-11 08:06:00,-7.9,-12.0,30.62,NW,325,0.0,4.0,82,0.00,,,0.00,weatherlink.com 1.10,2013-12-11 14:06:00,
2013-12-11 08:21:00,-7.2,-12.0,30.63,WNW,298,1.0,5.0,81,0.00,,,0.00,weatherlink.com 1.10,2013-12-11 14:21:00,
2013-12-11 08:36:00,-6.6,-11.0,30.64,NNW,346,4.0,5.0,80,0.00,,,0.00,weatherlink.com 1.10,2013-12-11 14:36:00,
2013-12-11 08:51:00,-6.7,-12.0,30.63,NW,324,2.0,6.0,79,0.00,,,0.00,weatherlink.com 1.10,2013-12-11 14:51:00,
2013-12-11 09:06:00,-6.1,-11.0,30.64,NW,326,6.0,9.0,80,0.00,,,0.00,weatherlink.com 1.10,2013-12-11 15:06:00,
2013-12-11 09:21:00,-5.6,-11.0,30.64,NNW,327,6.0,12.0,79,0.00,,,0.00,weatherlink.com 1.10,2013-12-11 15:21:00,
2013-12-11 09:36:00,-5.4,-10.0,30.65,North,352,4.0,9.0,79,0.00,,,0.00,weatherlink.com 1.10,2013-12-11 15:36:00,
2013-12-11 09:51:00,-5.0,-10.0,30.67,NW,323,1.0,6.0,79,0.00,,,0.00,weatherlink.com 1.10,2013-12-11 15:51:00,
2013-12-11 10:06:00,-4.5,-9.0,30.67,WNW,284,3.0,7.0,79,0.00,,,0.00,weatherlink.com 1.10,2013-12-11 16:06:00,
2013-12-11 10:21:00,-3.7,-9.0,30.68,WNW,293,3.0,6.0,79,0.00,,,0.00,weatherlink.com 1.10,2013-12-11 16:21:00,
2013-12-11 10:37:00,-2.9,-8.0,30.68,NW,321,4.0,6.0,78,0.00,,,0.00,weatherlink.com 1.10,2013-12-11 16:37:00,
2013-12-11 10:52:00,-2.5,-8.0,30.69,NNW,329,2.0,7.0,76,0.00,,,0.00,weatherlink.com 1.10,2013-12-11 16:52:00,
2013-12-11 11:07:00,-1.9,-8.0,30.69,WNW,292,2.0,6.0,76,0.00,,,0.00,weatherlink.com 1.10,2013-12-11 17:07:00,
2013-12-11 11:22:00,-1.6,-8.0,30.68,WNW,291,4.0,7.0,75,0.00,,,0.00,weatherlink.com 1.10,2013-12-11 17:22:00,
2013-12-11 11:37:00,-1.2,-7.0,30.68,NW,323,3.0,6.0,75,0.00,,,0.00,weatherlink.com 1.10,2013-12-11 17:37:00,
2013-12-11 11:52:00,-1.0,-7.0,30.67,WNW,301,4.0,6.0,74,0.00,,,0.00,weatherlink.com 1.10,2013-12-11 17:52:00,
2013-12-11 12:07:00,-0.7,-7.0,30.67,West,279,6.0,6.0,74,0.00,,,0.00,weatherlink.com 1.10,2013-12-11 18:07:00,
2013-12-11 12:22:00,-0.7,-7.0,30.66,WNW,290,2.0,7.0,74,0.00,,,0.00,weatherlink.com 1.10,2013-12-11 18:22:00,
2013-12-11 12:37:00,-0.2,-7.0,30.66,NW,305,1.0,5.0,74,0.00,,,0.00,weatherlink.com 1.10,2013-12-11 18:37:00,
2013-12-11 12:52:00,0.0,-7.0,30.65,WNW,300,4.0,7.0,73,0.00,,,0.00,weatherlink.com 1.10,2013-12-11 18:52:00,
2013-12-11 13:07:00,0.4,-6.0,30.65,NNW,330,2.0,7.0,73,0.00,,,0.00,weatherlink.com 1.10,2013-12-11 19:07:00,
2013-12-11 13:22:00,0.8,-6.0,30.64,West,263,2.0,6.0,73,0.00,,,0.00,weatherlink.com 1.10,2013-12-11 19:22:00,
2013-12-11 13:37:00,0.8,-6.0,30.64,NNW,333,5.0,5.0,72,0.00,,,0.00,weatherlink.com 1.10,2013-12-11 19:37:00,
2013-12-11 13:53:00,0.9,-6.0,30.64,WNW,287,3.0,6.0,73,0.00,,,0.00,weatherlink.com 1.10,2013-12-11 19:53:00,
2013-12-11 14:08:00,0.8,-6.0,30.64,West,264,4.0,6.0,72,0.00,,,0.00,weatherlink.com 1.10,2013-12-11 20:08:00,
2013-12-11 14:23:00,0.8,-6.0,30.64,WSW,253,3.0,6.0,73,0.00,,,0.00,weatherlink.com 1.10,2013-12-11 20:23:00,
2013-12-11 14:38:00,0.5,-6.0,30.64,West,269,3.0,7.0,74,0.00,,,0.00,weatherlink.com 1.10,2013-12-11 20:38:00,
2013-12-11 14:53:00,-0.1,-7.0,30.65,WNW,284,3.0,8.0,74,0.00,,,0.00,weatherlink.com 1.10,2013-12-11 20:53:00,
2013-12-11 15:08:00,-0.4,-7.0,30.65,WSW,249,5.0,5.0,73,0.00,,,0.00,weatherlink.com 1.10,2013-12-11 21:08:00,
2013-12-11 15:23:00,-0.6,-7.0,30.65,West,275,3.0,7.0,74,0.00,,,0.00,weatherlink.com 1.10,2013-12-11 21:23:00,
2013-12-11 15:38:00,-1.4,-7.0,30.65,WSW,251,5.0,8.0,76,0.00,,,0.00,weatherlink.com 1.10,2013-12-11 21:38:00,
2013-12-11 15:53:00,-2.3,-8.0,30.65,West,259,2.0,-999.0,77,-99.99,,,0.00,weatherlink.com 1.10,2013-12-11 21:53:00,
2013-12-11 16:08:00,-3.1,-8.0,30.65,WSW,242,3.0,6.0,78,0.00,,,0.00,weatherlink.com 1.10,2013-12-11 22:08:00,
2013-12-11 16:23:00,-3.4,-9.0,30.66,SW,231,3.0,7.0,78,0.00,,,0.00,weatherlink.com 1.10,2013-12-11 22:23:00,
2013-12-11 16:38:00,-4.0,-9.0,30.66,SSW,207,1.0,6.0,79,0.00,,,0.00,weatherlink.com 1.10,2013-12-11 22:38:00,
2013-12-11 16:53:00,-4.9,-10.0,30.66,SSW,207,1.0,5.0,80,0.00,,,0.00,weatherlink.com 1.10,2013-12-11 22:53:00,
2013-12-11 17:09:00,-5.6,-10.0,30.65,SSW,213,1.0,3.0,80,0.00,,,0.00,weatherlink.com 1.10,2013-12-11 23:09:00,
2013-12-11 17:24:00,-5.7,-10.0,30.64,WSW,242,3.0,5.0,82,0.00,,,0.00,weatherlink.com 1.10,2013-12-11 23:24:00,
2013-12-11 17:39:00,-5.2,-9.0,30.65,West,262,3.0,6.0,82,0.00,,,0.00,weatherlink.com 1.10,2013-12-11 23:39:00,
2013-12-11 17:54:00,-5.2,-9.0,30.64,WSW,250,0.0,4.0,82,0.00,,,0.00,weatherlink.com 1.10,2013-12-11 23:54:00,
2013-12-11 18:09:00,-5.4,-10.0,30.63,SSW,197,3.0,3.0,82,0.00,,,0.00,weatherlink.com 1.10,2013-12-12 00:09:00,
2013-12-11 18:24:00,-5.5,-9.0,30.62,SSW,205,0.0,3.0,83,0.00,,,0.00,weatherlink.com 1.10,2013-12-12 00:24:00,
2013-12-11 18:39:00,-5.5,-10.0,30.62,SSE,165,1.0,2.0,82,0.00,,,0.00,weatherlink.com 1.10,2013-12-12 00:39:00,
2013-12-11 18:54:00,-5.6,-10.0,30.61,SSW,208,3.0,3.0,83,0.00,,,0.00,weatherlink.com 1.10,2013-12-12 00:54:00,
2013-12-11 19:09:00,-5.1,-9.0,30.60,South,184,2.0,7.0,84,0.00,,,0.00,weatherlink.com 1.10,2013-12-12 01:09:00,
2013-12-11 19:24:00,-3.9,-8.0,30.60,SSW,207,2.0,7.0,83,0.00,,,0.00,weatherlink.com 1.10,2013-12-12 01:24:00,
2013-12-11 19:39:00,-3.1,-7.0,30.60,South,174,1.0,8.0,83,0.00,,,0.00,weatherlink.com 1.10,2013-12-12 01:39:00,
2013-12-11 19:54:00,-2.6,-7.0,30.59,SSE,162,1.0,9.0,82,0.00,,,0.00,weatherlink.com 1.10,2013-12-12 01:54:00,
2013-12-11 20:09:00,-2.2,-6.0,30.59,SSW,197,4.0,7.0,82,0.00,,,0.00,weatherlink.com 1.10,2013-12-12 02:09:00,
2013-12-11 20:24:00,-1.6,-6.0,30.58,SSW,203,5.0,9.0,82,0.00,,,0.00,weatherlink.com 1.10,2013-12-12 02:24:00,
2013-12-11 20:40:00,-1.1,-5.0,30.58,SW,231,6.0,9.0,82,0.00,,,0.00,weatherlink.com 1.10,2013-12-12 02:40:00,
2013-12-11 20:55:00,-0.5,-5.0,30.57,SW,221,9.0,14.0,81,0.00,,,0.00,weatherlink.com 1.10,2013-12-12 02:55:00,
2013-12-11 21:10:00,-0.4,-5.0,30.57,South,176,4.0,12.0,81,0.00,,,0.00,weatherlink.com 1.10,2013-12-12 03:10:00,
2013-12-11 21:25:00,-0.7,-5.0,30.57,SSW,211,4.0,8.0,81,0.00,,,0.00,weatherlink.com 1.10,2013-12-12 03:25:00,
2013-12-11 21:40:00,-1.3,-6.0,30.56,SW,223,8.0,11.0,81,0.00,,,0.00,weatherlink.com 1.10,2013-12-12 03:40:00,
2013-12-11 21:55:00,-2.2,-7.0,30.55,SSW,213,3.0,6.0,81,0.00,,,0.00,weatherlink.com 1.10,2013-12-12 03:55:00,
2013-12-11 22:10:00,-2.6,-7.0,30.54,SSE,164,4.0,6.0,82,0.00,,,0.00,weatherlink.com 1.10,2013-12-12 04:10:00,
2013-12-11 22:25:00,-2.2,-6.0,30.53,South,184,5.0,10.0,82,0.00,,,0.00,weatherlink.com 1.10,2013-12-12 04:25:00,
2013-12-11 22:40:00,-2.1,-7.0,30.53,SSW,202,4.0,15.0,81,0.00,,,0.00,weatherlink.com 1.10,2013-12-12 04:40:00,
2013-12-11 22:55:00,-2.2,-7.0,30.52,South,176,6.0,11.0,81,0.00,,,0.00,weatherlink.com 1.10,2013-12-12 04:55:00,
2013-12-11 23:10:00,-2.8,-7.0,30.51,SSW,193,4.0,8.0,82,0.00,,,0.00,weatherlink.com 1.10,2013-12-12 05:10:00,
2013-12-11 23:25:00,-3.0,-7.0,30.51,SSW,212,3.0,12.0,82,0.00,,,0.00,weatherlink.com 1.10,2013-12-12 05:25:00,
2013-12-11 23:40:00,-2.7,-7.0,30.50,SW,232,1.0,7.0,82,0.00,,,0.00,weatherlink.com 1.10,2013-12-12 05:40:00,
2013-12-11 23:56:00,-2.9,-7.0,30.50,South,169,5.0,9.0,82,0.00,,,0.00,weatherlink.com 1.10,2013-12-12 05:56:00,